Location: Maignaut
(43.8886°N, 0.4051°E)
Time: 09:00:16
(UTC+00:00)

Meteor 1-13 Rocket - Pass Details

Date: 27 February 2020
Orbit: 829 x 913 km, 81.3° (Epoch: 27 March)

Event Time Altitude Azimuth Distance (km) Brightness Sun altitude
Rises 19:34:37 0° 352° (N) 3,527 7.6 -20.8°
Reaches altitude 10° 19:37:09 10° 356° (N) 2,572 6.9 -21.2°
Maximum altitude 19:42:57 61° 77° (ENE) 994 4.2 -22.2°
Enters shadow 19:44:42 42° 135° (SE) 1,223 4.6 -22.5°
